Weather in Syrdar'ja

Uzbekistan     40°50′19″N   68°39′51″E
temp.,
°C
wind,
m/s
gust,
m/s
humid.,
%
clouds,
%
prec.,
mm/h
press.,
hPa
HPBL,
m
14 may, fri
fri1423:00+19nnw35400 0.0 101180
02:00+17wsw35360 0.0 101285
05:00+15ssw33400 0.0 101247
08:00+20ssw45280 0.0 1014446
11:00+26ssw22210 0.0 1013844
14:00+30nnw11190 0.0 10121533
17:00+30nnw34190 0.0 10102155
20:00+23n611380 0.0 1011328
15 may, sat
sat1523:00+20nw47390 0.0 1010159
02:00+18w36420 0.0 1009103
05:00+16ssw46500 0.0 1010113
08:00+20ssw45380 0.0 1012658
11:00+25ssw44260 0.0 10111137
14:00+29sw22180 0.0 10101515
17:00+30nnw11160 0.0 10081758
20:00+24nnw11240 0.0 100911
16 may, sun
sun1623:00+21n22370 0.0 100913
02:00+19wnw11510 0.0 100811
05:00+17wsw22550 0.0 101022
08:00+21wsw22360 0.0 1011338
11:00+28wsw21240 0.0 1011858
14:00+31nw33200 0.0 10091489
17:00+32nnw22170 0.0 10081845
20:00+26nnw22260 0.0 100912
17 may, mon
mon1723:00+23nnw11320 0.0 100911
02:00+21se11370 0.0 100911
05:00+19ssw23420 0.0 101021
08:00+24s23320 0.0 1011288
11:00+31sse33220 0.0 10111095
14:00+35n14130 0.0 10093191
17:00+34nnw33120 0.0 10083697
20:00+27nne33223 0.0 100823
18 may, tue
tue1823:00+24e33241 0.0 100841
02:00+23ene22230 0.0 100712
05:00+21ene11250 0.0 100812
08:00+27s23240 0.0 1008259
11:00+34s11160 0.0 10081392
14:00+36nw35124 0.0 10064102
17:00+35nnw45135 0.0 10054031
20:00+27sse472656 0.0 1007118